FW6498 Weather Reports


Display with metric or nautical units.
time (UTC)temp
F
wind
direction
speed
MPH
gust
MPH
rain 1hr
in
rain 24hr
in
rain mn
in
humidity
%
barometer
mb
20260507220459 56 0 0.0 0.0 0.00 0.00 0.00 74 1014.4
20260507220001 56 0 0.0 0.0 0.00 0.00 0.00 74 1014.3
20260507215459 56 0 0.0 0.0 0.00 0.00 0.00 75 1014.2
20260507215000 56 0 0.0 0.0 0.00 0.00 0.00 74 1014.2
20260507214459 57 0 0.0 0.0 0.00 0.00 0.00 74 1014.3
20260507213459 57 0 0.0 0.0 0.00 0.00 0.00 73 1014.2
20260507213000 57 0 0.0 0.0 0.00 0.00 0.00 73 1014.2
20260507212459 57 0 0.0 0.0 0.00 0.00 0.00 73 1014.2
20260507212001 57 0 0.0 0.0 0.00 0.00 0.00 73 1014.1
20260507211459 57 0 0.0 0.0 0.00 0.00 0.00 73 1014.0
20260507211000 58 0 0.0 0.0 0.00 0.00 0.00 73 1014.0
20260507210001 58 0 0.0 0.0 0.00 0.00 0.00 73 1013.8
20260507205500 58 0 0.0 0.0 0.00 0.00 0.00 72 1014.0
20260507205000 58 0 0.0 0.0 0.00 0.00 0.00 72 1014.0
20260507204459 58 0 0.0 0.0 0.00 0.00 0.00 73 1014.0
20260507204000 58 0 0.0 0.0 0.00 0.00 0.00 72 1013.9
20260507203459 58 0 0.0 0.0 0.00 0.00 0.00 72 1013.9
20260507202459 59 0 0.0 0.0 0.00 0.00 0.00 72 1013.8
20260507201459 59 0 0.0 0.0 0.00 0.00 0.00 72 1013.9
20260507201000 59 0 0.0 0.0 0.00 0.00 0.00 71 1013.8
20260507200459 59 0 0.0 0.0 0.00 0.00 0.00 71 1013.8
20260507195500 59 0 0.0 0.0 0.00 0.00 0.00 71 1013.8
20260507195000 59 0 0.0 0.0 0.00 0.00 0.00 70 1013.7
20260507194459 60 0 0.0 0.0 0.00 0.00 0.00 70 1013.6
20260507194000 60 0 0.0 0.0 0.00 0.00 0.00 69 1013.5
20260507193459 60 0 0.0 0.0 0.00 0.00 0.00 69 1013.6
20260507193001 60 0 0.0 0.0 0.00 0.00 0.00 69 1013.4
20260507192500 60 0 0.0 0.0 0.00 0.00 0.00 69 1013.4
20260507192000 60 0 0.0 0.0 0.00 0.00 0.00 69 1013.4
20260507191459 60 0 0.0 0.0 0.00 0.00 0.00 69 1013.3
20260507191000 61 0 0.0 0.0 0.00 0.00 0.00 68 1013.2
20260507190001 61 0 0.0 0.0 0.00 0.00 0.00 68 1013.1
20260507185459 61 0 0.0 0.0 0.00 0.00 0.00 68 1013.0
20260507185000 62 0 0.0 0.0 0.00 0.00 0.00 68 1013.0
20260507184500 62 0 0.0 0.0 0.00 0.00 0.00 67 1013.0
20260507184001 62 0 0.0 0.0 0.00 0.00 0.00 66 1012.9
20260507183500 63 0 0.0 0.0 0.00 0.00 0.00 66 1013.0
20260507182459 64 0 0.0 0.0 0.00 0.00 0.00 64 1012.8
20260507182000 64 153 0.0 2.0 0.00 0.00 0.00 64 1012.9
20260507181001 64 0 0.0 0.0 0.00 0.00 0.00 64 1012.9
20260507180459 65 0 0.0 0.0 0.00 0.00 0.00 64 1012.9
20260507180001 65 0 0.0 0.0 0.00 0.00 0.00 63 1012.8
20260507175000 65 0 0.0 0.0 0.00 0.00 0.00 62 1012.6
20260507174500 66 0 0.0 0.0 0.00 0.00 0.00 62 1012.5
20260507173500 67 0 0.0 0.0 0.00 0.00 0.00 60 1012.3
20260507172500 67 205 0.0 4.0 0.00 0.00 0.00 58 1012.2
20260507172000 68 203 0.0 4.0 0.00 0.00 0.00 58 1012.0
20260507171001 69 186 0.0 1.0 0.00 0.00 0.00 57 1012.0
20260507170500 69 186 0.0 1.0 0.00 0.00 0.00 55 1012.0
20260507170000 69 204 0.0 1.0 0.00 0.00 0.00 55 1011.9
20260507165459 69 196 0.0 6.0 0.00 0.00 0.00 55 1011.9
20260507165001 70 196 0.0 6.0 0.00 0.00 0.00 55 1011.8
20260507164001 70 202 0.0 8.0 0.00 0.00 0.00 56 1011.8
20260507163459 70 207 0.0 8.0 0.00 0.00 0.00 55 1011.9
20260507163001 70 205 0.0 2.0 0.00 0.00 0.00 56 1011.8
20260507162459 70 159 0.0 1.0 0.00 0.00 0.00 56 1011.8
20260507162001 70 143 0.0 1.0 0.00 0.00 0.00 55 1011.8
20260507161500 71 149 0.0 1.0 0.00 0.00 0.00 55 1011.9
20260507161000 71 181 0.0 1.0 0.00 0.00 0.00 55 1011.9
20260507160459 71 178 0.0 8.0 0.00 0.00 0.00 55 1012.0
20260507160001 71 188 0.0 8.0 0.00 0.00 0.00 55 1011.9
20260507155501 71 193 0.0 7.0 0.00 0.00 0.00 55 1012.1
20260507155001 71 201 0.0 1.0 0.00 0.00 0.00 54 1012.1
20260507154001 69 199 0.0 1.0 0.00 0.00 0.00 57 1012.2
20260507153459 68 197 0.0 1.0 0.00 0.00 0.00 58 1012.2
20260507152500 68 207 0.0 4.0 0.00 0.00 0.00 59 1012.1
20260507152002 68 0 0.0 0.0 0.00 0.00 0.00 59 1012.1
20260507151500 68 166 0.0 1.0 0.00 0.00 0.00 59 1012.2
20260507151000 68 167 0.0 1.0 0.00 0.00 0.00 60 1012.1
20260507150459 68 186 0.0 1.0 0.00 0.00 0.00 60 1012.1
20260507150001 68 201 0.0 3.0 0.00 0.00 0.00 60 1012.1
20260507145001 68 0 0.0 0.0 0.00 0.00 0.00 60 1012.2
20260507144459 68 0 0.0 0.0 0.00 0.00 0.00 61 1012.2
20260507143500 67 191 0.0 1.0 0.00 0.00 0.00 60 1012.2
20260507143000 68 205 0.0 2.0 0.00 0.00 0.00 60 1012.3
20260507142500 68 208 0.0 2.0 0.00 0.00 0.00 60 1012.3
20260507142001 68 227 0.0 1.0 0.00 0.00 0.00 60 1012.4
20260507141500 68 202 0.0 8.0 0.00 0.00 0.00 60 1012.4
20260507141002 68 202 0.0 8.0 0.00 0.00 0.00 60 1012.5
20260507140459 68 200 0.0 1.0 0.00 0.00 0.00 59 1012.4
20260507140000 68 205 0.0 1.0 0.00 0.00 0.00 61 1012.4
20260507135500 69 0 0.0 0.0 0.00 0.00 0.00 61 1012.3
20260507134501 69 0 0.0 0.0 0.00 0.00 0.00 62 1012.3
20260507134000 69 203 0.0 1.0 0.00 0.00 0.00 61 1012.3
20260507133500 69 204 0.0 3.0 0.00 0.00 0.00 60 1012.4
20260507133001 69 203 0.0 3.0 0.00 0.00 0.00 61 1012.4
20260507132459 69 179 0.0 1.0 0.00 0.00 0.00 60 1012.4
20260507132001 69 157 0.0 1.0 0.00 0.00 0.00 61 1012.3
20260507131001 69 201 0.0 5.0 0.00 0.00 0.00 60 1012.5
20260507130500 69 164 0.0 1.0 0.00 0.00 0.00 60 1012.4
20260507130003 69 163 0.0 2.0 0.00 0.00 0.00 61 1012.5
20260507125000 68 199 0.0 2.0 0.00 0.00 0.00 63 1012.3
20260507124459 68 200 0.0 2.0 0.00 0.00 0.00 63 1012.4
20260507124000 67 189 0.0 2.0 0.00 0.00 0.00 63 1012.5
20260507123500 68 190 0.0 2.0 0.00 0.00 0.00 63 1012.5
20260507123001 67 197 0.0 1.0 0.00 0.00 0.00 63 1012.5
20260507122500 68 193 0.0 6.0 0.00 0.00 0.00 63 1012.6
20260507122000 68 194 0.0 6.0 0.00 0.00 0.00 63 1012.6
20260507121500 68 197 0.0 2.0 0.00 0.00 0.00 62 1012.5
20260507121001 68 165 0.0 1.0 0.00 0.00 0.00 62 1012.5
20260507120001 69 192 0.0 1.0 0.00 0.00 0.00 63 1012.6
20260507115500 69 144 0.0 2.0 0.00 0.00 0.00 63 1012.7
20260507115000 68 151 0.0 2.0 0.00 0.00 0.00 63 1012.7
20260507114500 68 187 0.0 3.0 0.00 0.00 0.00 64 1012.7
20260507113500 66 0 0.0 0.0 0.00 0.00 0.00 67 1012.6
20260507113001 65 147 0.0 1.0 0.00 0.00 0.00 68 1012.6
20260507112459 65 176 0.0 1.0 0.00 0.00 0.00 69 1012.7
20260507112001 64 195 0.0 9.0 0.00 0.00 0.00 69 1012.9
20260507111500 65 196 0.0 9.0 0.00 0.00 0.00 68 1012.9
20260507111000 64 200 0.0 4.0 0.00 0.00 0.00 69 1012.9
20260507110459 65 175 0.0 1.0 0.00 0.00 0.00 69 1012.9
20260507110001 65 160 0.0 2.0 0.00 0.00 0.00 69 1012.9
20260507105500 65 188 0.0 3.0 0.00 0.00 0.00 69 1012.9
20260507105001 64 193 0.0 3.0 0.00 0.00 0.00 69 1012.9
20260507104500 65 206 0.0 2.0 0.00 0.00 0.00 69 1012.9
20260507104000 65 184 0.0 3.0 0.00 0.00 0.00 69 1012.8
20260507103001 65 168 0.0 2.0 0.00 0.00 0.00 69 1012.8
20260507102500 65 164 0.0 2.0 0.00 0.00 0.00 69 1012.9
20260507102001 65 192 0.0 1.0 0.00 0.00 0.00 69 1012.9
20260507101000 65 178 0.0 2.0 0.00 0.00 0.00 68 1012.8
20260507100459 65 166 0.0 2.0 0.00 0.00 0.00 68 1012.8
20260507100001 65 158 0.0 1.0 0.00 0.00 0.00 68 1012.8
20260507095001 65 161 0.0 1.0 0.00 0.00 0.00 68 1012.7
20260507094500 65 205 0.0 1.0 0.00 0.00 0.00 67 1012.6
20260507094001 65 0 0.0 0.0 0.00 0.00 0.00 68 1012.6
20260507093500 65 218 0.0 1.0 0.00 0.00 0.00 68 1012.6
20260507093001 65 158 0.0 1.0 0.00 0.00 0.00 67 1012.6
20260507092459 65 185 0.0 2.0 0.00 0.00 0.00 68 1012.5
20260507091500 65 181 0.0 1.0 0.00 0.00 0.00 68 1012.4
20260507091001 65 182 0.0 1.0 0.00 0.00 0.00 68 1012.4
20260507090459 64 189 0.0 3.0 0.00 0.00 0.00 69 1012.3
20260507090001 64 203 0.0 3.0 0.00 0.00 0.00 69 1012.2
20260507085500 64 211 0.0 3.0 0.00 0.00 0.00 70 1012.2
20260507085001 63 212 0.0 3.0 0.00 0.00 0.00 70 1012.2
20260507084501 63 250 0.0 1.0 0.00 0.00 0.00 70 1012.1
20260507084001 63 253 0.0 1.0 0.00 0.00 0.00 71 1012.0
20260507083500 63 222 0.0 1.0 0.00 0.00 0.00 71 1012.0
20260507083001 63 220 0.0 1.0 0.00 0.00 0.00 71 1012.1
20260507082459 63 196 0.0 1.0 0.00 0.00 0.00 72 1012.1
20260507082001 63 196 0.0 1.0 0.00 0.00 0.00 72 1012.1
20260507081500 63 0 0.0 0.0 0.00 0.00 0.00 71 1012.1
20260507081001 63 0 0.0 0.0 0.00 0.00 0.00 71 1012.1
20260507080500 63 0 0.0 0.0 0.00 0.00 0.00 71 1012.0
20260507080001 63 0 0.0 0.0 0.00 0.00 0.00 71 1012.0
20260507075459 63 188 0.0 1.0 0.00 0.00 0.00 71 1011.9
20260507075001 63 188 0.0 1.0 0.00 0.00 0.00 71 1011.9
20260507074500 63 0 0.0 0.0 0.00 0.00 0.00 71 1011.9
20260507074001 63 0 0.0 0.0 0.00 0.00 0.00 72 1011.9
20260507073501 63 0 0.0 0.0 0.00 0.00 0.00 72 1011.8
20260507072500 62 122 0.0 1.0 0.00 0.00 0.00 73 1011.7
20260507072001 62 177 0.0 1.0 0.00 0.00 0.00 73 1011.7
20260507071500 62 177 0.0 1.0 0.00 0.00 0.00 73 1011.7
20260507071001 62 0 0.0 0.0 0.00 0.00 0.00 74 1011.7
20260507070500 62 168 0.0 1.0 0.00 0.00 0.00 74 1011.6
20260507065501 61 197 0.0 2.0 0.00 0.00 0.00 74 1011.5
20260507065001 61 197 0.0 2.0 0.00 0.00 0.00 74 1011.6
20260507064500 61 206 0.0 2.0 0.00 0.00 0.00 75 1011.7
20260507064001 61 206 0.0 2.0 0.00 0.00 0.00 75 1011.5
20260507063500 61 188 0.0 1.0 0.00 0.00 0.00 75 1011.5
20260507063000 61 195 0.0 5.0 0.00 0.00 0.00 75 1011.6
20260507062500 61 196 0.0 5.0 0.00 0.00 0.00 76 1011.6
20260507062002 61 194 0.0 1.0 0.00 0.00 0.00 76 1011.6
20260507061002 61 213 0.0 3.0 0.00 0.00 0.00 76 1011.4
20260507060500 60 205 0.0 3.0 0.00 0.00 0.00 77 1011.2
20260507060001 60 0 0.0 0.0 0.00 0.00 0.00 77 1011.2
20260507055500 60 0 0.0 0.0 0.00 0.00 0.00 77 1011.1
20260507055001 60 0 0.0 0.0 0.00 0.00 0.00 78 1011.0
20260507054002 60 0 0.0 0.0 0.00 0.00 0.00 78 1010.9
20260507052501 59 0 0.0 0.0 0.00 0.00 0.00 79 1010.9
20260507052001 59 0 0.0 0.0 0.00 0.00 0.00 79 1010.8
20260507051500 59 201 0.0 2.0 0.00 0.00 0.00 79 1010.6
20260507045500 59 0 0.0 0.0 0.00 0.00 0.00 79 1010.4
20260507045000 59 0 0.0 0.0 0.00 0.00 0.00 79 1010.2
20260507044500 59 0 0.0 0.0 0.00 0.00 0.00 79 1010.3
20260507044001 59 0 0.0 0.0 0.00 0.00 0.00 79 1010.2
20260507043500 59 0 0.0 0.0 0.00 0.00 0.00 79 1010.2
20260507043001 59 161 0.0 1.0 0.00 0.00 0.00 79 1010.1
20260507042500 58 161 0.0 1.0 0.00 0.00 0.00 79 1010.1
20260507042002 58 0 0.0 0.0 0.00 0.00 0.00 80 1010.1
20260507041500 58 0 0.0 0.0 0.00 0.00 0.00 80 1009.9
20260507041001 58 0 0.0 0.0 0.00 0.00 0.00 80 1009.9
20260507040500 58 0 0.0 0.0 0.00 0.00 0.00 79 1009.8
20260507040003 58 0 0.0 0.0 0.00 0.00 0.00 79 1009.8
20260507035500 59 0 0.0 0.0 0.00 0.00 0.00 79 1009.7
20260507035001 59 0 0.0 0.0 0.00 0.00 0.00 79 1009.6
20260507033001 59 0 0.0 0.0 0.00 0.00 0.00 78 1009.6
20260507032501 59 0 0.0 0.0 0.00 0.00 0.00 78 1009.5
20260507031500 59 0 0.0 0.0 0.00 0.00 0.00 78 1009.5
20260507031001 59 0 0.0 0.0 0.00 0.00 0.00 78 1009.4
20260507030500 59 0 0.0 0.0 0.00 0.00 0.00 77 1009.4
20260507030002 60 0 0.0 0.0 0.00 0.00 0.00 77 1009.4
20260507025500 60 0 0.0 0.0 0.00 0.00 0.00 76 1009.3
20260507025002 60 0 0.0 0.0 0.00 0.00 0.00 76 1009.3
20260507024500 60 0 0.0 0.0 0.00 0.00 0.00 75 1009.3
20260507024001 60 203 0.0 1.0 0.00 0.00 0.00 76 1009.1
20260507023500 60 196 0.0 1.0 0.00 0.00 0.00 76 1009.1
20260507023002 60 176 0.0 6.0 0.00 0.00 0.00 75 1009.0
20260507022500 60 175 0.0 6.0 0.00 0.00 0.00 75 1009.2
20260507021501 61 174 0.0 7.0 0.00 0.00 0.00 75 1009.2
20260507020500 60 164 0.0 4.0 0.00 0.00 0.00 75 1009.2
20260507020002 60 188 0.0 3.0 0.00 0.00 0.00 75 1009.1
20260507015501 61 181 0.0 6.0 0.00 0.00 0.00 74 1009.1
20260507015001 61 177 0.0 6.0 0.00 0.00 0.00 74 1009.1
20260507014501 61 169 0.0 8.0 0.00 0.00 0.00 74 1008.9
20260507014002 61 176 0.0 10.0 0.00 0.00 0.00 74 1009.0
20260507013501 61 189 0.0 10.0 0.00 0.00 0.00 73 1008.9
20260507013001 62 194 0.0 7.0 0.00 0.00 0.00 73 1008.9
20260507012500 62 177 1.0 12.0 0.00 0.00 0.00 72 1008.8
20260507011500 62 182 2.0 13.0 0.00 0.00 0.00 72 1008.8
20260507011001 62 171 2.0 13.0 0.00 0.00 0.00 71 1008.6
20260507010500 62 170 2.0 13.0 0.00 0.00 0.00 71 1008.5
20260507010001 63 181 1.0 11.0 0.00 0.00 0.00 71 1008.5
20260507005501 63 179 2.0 11.0 0.00 0.00 0.00 71 1008.5
20260507005002 63 179 3.0 14.0 0.00 0.00 0.00 71 1008.4
20260507004500 63 182 4.0 14.0 0.00 0.00 0.00 70 1008.4
20260507004001 63 174 4.0 14.0 0.00 0.00 0.00 70 1008.4
20260507003500 63 165 3.0 15.0 0.00 0.00 0.00 70 1008.4
20260507003002 63 181 3.0 15.0 0.00 0.00 0.00 70 1008.2
20260507002500 63 181 4.0 18.0 0.00 0.00 0.00 70 1008.2
20260507002001 63 174 5.0 18.0 0.00 0.00 0.00 70 1008.3
20260507001501 63 178 4.0 17.0 0.00 0.00 0.00 70 1008.2
20260507000500 63 194 3.0 21.0 0.00 0.00 0.00 70 1008.3
20260507000002 63 170 3.0 16.0 0.00 0.00 0.00 70 1008.1
20260506235501 63 168 3.0 16.0 0.00 0.00 0.00 70 1008.2
20260506235002 64 171 3.0 14.0 0.00 0.00 0.00 69 1008.0
20260506234500 64 177 2.0 15.0 0.00 0.00 0.00 69 1008.0
20260506234001 64 170 5.0 20.0 0.00 0.00 0.00 69 1008.0
20260506233500 64 171 5.0 20.0 0.00 0.00 0.00 69 1007.9
20260506231001 64 163 4.0 20.0 0.00 0.00 0.00 68 1007.9
20260506230501 64 152 5.0 20.0 0.00 0.00 0.00 68 1007.9
20260506230002 65 157 5.0 23.0 0.00 0.00 0.00 68 1007.7
20260506225501 65 160 5.0 23.0 0.00 0.00 0.00 68 1007.8
20260506225001 65 158 4.0 19.0 0.00 0.00 0.00 68 1007.6
20260506224500 65 162 5.0 19.0 0.00 0.00 0.00 67 1007.7
20260506224002 65 167 5.0 19.0 0.00 0.00 0.00 67 1007.8
20260506223001 65 174 9.0 23.0 0.00 0.00 0.00 67 1007.7
20260506222001 65 177 6.0 23.0 0.00 0.00 0.00 67 1007.8
20260506221500 65 189 6.0 23.0 0.00 0.00 0.00 67 1007.9
20260506221001 65 182 6.0 19.0 0.00 0.00 0.00 67 1007.7